SL-14 DEB, 45332

Orbit data source: Space-Track

SL-14 DEB, 45332 is space debris in LEO originally from a launch on Thu, 15 Aug 1991 UTC launched from the Plesetsk Missile And Space Complex (PKMTR). Debris objects in space refer to the collection of defunct objects orbiting the Earth. Examples of debris include non-operational satellites, rocket bodies, and fragments generated from explosions, collisions, or faulty payload assembly.

Loading next visibility...
SL-14 DEB details
Identifier
45332, 1991-056BW
Orbit
LEO
Last TLE update1 day ago
Origin
Flag of CISRosgidromet (CIS)
ManufacturerUnknown
MissionSpacecraft
Bus & MotorUnknown
MassUnknown
Launch date (UTC)
1991-08-15 (33 years ago)
Launch vehicleUnknown
Launch site
Plesetsk Missile And Space Complex (PKMTR)
Object type
Payload
Rocket body
Debris
Shape & HBRUnknown
Radar Cross SectionSmall (<0.1 m²)

Expand to show TLE details & history

TLE from 1 day ago
0 SL-14 DEB
1 45332U 91056BW  24347.99679012  .00000883  00000-0  23336-2 0  9999
2 45332  82.5521 178.0645 0106463 128.9697 232.0968 13.12885852229135
Epoch: 2024-12-12T23:55Z
Definitive object data (Epoch: 2024-12-12T23:55:22.666Z)
Latitude0.00003°
Longitude97.05096°
Altitude1,265 km
Speed7.199 km/s
True Right ascension11h 52m 15s
True Declination0° 00' 00"
Sunlit
Object was in daylight at TLE epoch
Visualization TLE readout
Latitude-64.25895°
Longitude80.55379°
Altitude1,315.806 km
Speed7.161 km/s
Apparent Right ascension13h 34m 45s
Apparent Declination-58° 05' 06"
Sunlit
Object is in daylight
Visualization observer readout
Local Sidereal Time03:23:55
Azimuth145.261° SSE
Elevation-64.824°
Doppler factor1
Orbital elements
Apogee altitude1,290.044 km
Perigee altitude1,128.488 km
Semi-major axis7,587.403 km
Eccentricity0.0106463
Inclination82.5521°
RAAN178.0645°
Arg. of periapsis128.9697°
True anomaly231.14203°
Mean anomaly232.0968°
Eccentric anomaly231.61863°
Mean motion3.284 °/min
BSTAR0.0023336
Orbital period109.62 mins
Loading maneuver chart data...
Loading historical data...
Loading historical data...
Loading historical data...
Loading historical data...
Loading historical data...
Loading historical data...
Loading historical data...

SL-14 DEB Visibility forecast

Observer location: undefined°, undefined

Span
Click to sort rows by Start time (UTC) header in descending order
Start Az.
Max El. time (UTC)
Max El. Az.
Max El.
End time (UTC)
End Az.
12 mins2024-12-14 12:35:58.005Z150.553° SSE2024-12-14 12:41:58.005Z94.843° ESE30.943°2024-12-14 12:47:58.005Z27.698° NE
11 mins2024-12-14 14:27:58.005Z226.671° WSW2024-12-14 14:32:58.005Z287.548° WNW32.167°2024-12-14 14:38:58.005Z350.547° N
12 mins2024-12-15 00:04:58.005Z6.117° NNE2024-12-15 00:09:58.005Z64.515° ENE37.793°2024-12-15 00:16:58.005Z152.646° SSE
9 mins2024-12-15 01:56:58.005Z315.434° NNW2024-12-15 02:00:58.005Z269.859° W23.194°2024-12-15 02:05:58.005Z223.65° SW
|